EW6895 Weather Reports


time (UTC)temp
C
wind
direction
speed
KPH
gust
KPH
rain 1hr
cm
rain 24hr
cm
rain mn
cm
humidity
%
barometer
mb
20220629032323 28 47 0.0 4.8 0.00 0.00 0.00 50 1018.7
20220629031819 28 47 0.0 3.2 0.00 0.00 0.00 50 1018.6
20220629031313 28 47 0.0 1.6 0.00 0.00 0.00 49 1018.6
20220629030829 28 47 0.0 4.8 0.00 0.00 0.00 47 1018.5
20220629030329 28 47 1.6 4.8 0.00 0.00 0.00 46 1018.2
20220629025823 28 47 0.0 3.2 0.00 0.00 0.00 46 1018.3
20220629025318 28 47 0.0 1.6 0.00 0.00 0.00 45 1018.2
20220629024830 28 47 0.0 4.8 0.00 0.00 0.00 44 1018.0
20220629024325 28 47 0.0 4.8 0.00 0.00 0.00 44 1018.0
20220629023820 28 47 0.0 3.2 0.00 0.00 0.00 44 1017.9
20220629023315 28 47 0.0 0.0 0.00 0.00 0.00 44 1018.0
20220629022814 29 47 0.0 1.6 0.00 0.00 0.00 44 1017.9
20220629022326 29 47 0.0 3.2 0.00 0.00 0.00 43 1017.8
20220629021819 29 47 0.0 3.2 0.00 0.00 0.00 42 1017.9
20220629021314 29 47 0.0 3.2 0.00 0.00 0.00 42 1017.9
20220629020826 29 47 0.0 3.2 0.00 0.00 0.00 42 1017.8
20220629020322 29 47 0.0 3.2 0.00 0.00 0.00 41 1017.8
20220629015815 29 47 0.0 3.2 0.00 0.00 0.00 40 1017.7
20220629015329 30 47 0.0 3.2 0.00 0.00 0.00 39 1017.6
20220629014828 30 47 0.0 4.8 0.00 0.00 0.00 39 1017.5
20220629014321 30 47 0.0 4.8 0.00 0.00 0.00 38 1017.5
20220629013817 30 47 0.0 1.6 0.00 0.00 0.00 38 1017.4
20220629013312 30 47 0.0 3.2 0.00 0.00 0.00 37 1017.4
20220629012825 30 47 0.0 3.2 0.00 0.00 0.00 36 1017.4
20220629012319 30 47 0.0 3.2 0.00 0.00 0.00 36 1017.4
20220629011814 30 47 0.0 3.2 0.00 0.00 0.00 35 1017.4
20220629011312 31 47 0.0 3.2 0.00 0.00 0.00 35 1017.3
20220629010827 31 47 0.0 1.6 0.00 0.00 0.00 34 1017.3
20220629010317 31 47 0.0 4.8 0.00 0.00 0.00 33 1017.2
20220629005812 31 47 0.0 3.2 0.00 0.00 0.00 33 1017.2
20220629005327 31 47 0.0 3.2 0.00 0.00 0.00 33 1017.1
20220629004820 31 47 0.0 3.2 0.00 0.00 0.00 32 1017.1
20220629004315 31 47 0.0 4.8 0.00 0.00 0.00 32 1017.1
20220629003830 32 47 0.0 4.8 0.00 0.00 0.00 33 1017.1
20220629003328 32 47 0.0 3.2 0.00 0.00 0.00 32 1017.0
20220629002822 32 47 0.0 4.8 0.00 0.00 0.00 31 1016.9
20220629002316 32 47 0.0 8.0 0.00 0.00 0.00 32 1016.9
20220629001829 32 47 0.0 8.0 0.00 0.00 0.00 29 1016.9
20220629001324 32 47 0.0 6.4 0.00 0.00 0.00 29 1016.9
20220629000816 32 47 1.6 8.0 0.00 0.00 0.00 29 1016.8
20220629000311 32 47 1.6 8.0 0.00 0.00 0.00 29 1016.8
20220628235824 32 47 0.0 6.4 0.00 0.00 0.00 30 1016.8
20220628235322 32 47 1.6 9.7 0.00 0.00 0.00 30 1016.8
20220628234817 32 47 1.6 8.0 0.00 0.00 0.00 29 1016.8
20220628234311 32 47 0.0 8.0 0.00 0.00 0.00 30 1016.8
20220628233823 32 47 0.0 8.0 0.00 0.00 0.00 31 1016.8
20220628233318 32 47 0.0 6.4 0.00 0.00 0.00 32 1016.8
20220628232812 32 47 1.6 9.7 0.00 0.00 0.00 31 1016.8
20220628232327 33 47 3.2 9.7 0.00 0.00 0.00 30 1017.0
20220628231825 33 47 1.6 8.0 0.00 0.00 0.00 29 1016.9
20220628231320 33 47 1.6 14.5 0.00 0.00 0.00 28 1017.0
20220628230813 33 47 1.6 14.5 0.00 0.00 0.00 29 1016.9
20220628230328 33 47 1.6 6.4 0.00 0.00 0.00 28 1017.0
20220628225822 33 47 0.0 8.0 0.00 0.00 0.00 29 1017.1
20220628225316 33 47 1.6 9.7 0.00 0.00 0.00 28 1017.2
20220628224829 33 47 1.6 9.7 0.00 0.00 0.00 27 1017.2
20220628224324 33 47 1.6 9.7 0.00 0.00 0.00 28 1017.2
20220628223824 33 47 1.6 9.7 0.00 0.00 0.00 30 1017.3
20220628223318 33 47 0.0 8.0 0.00 0.00 0.00 29 1017.5
20220628222814 33 47 1.6 8.0 0.00 0.00 0.00 30 1017.5
20220628222331 33 47 0.0 8.0 0.00 0.00 0.00 31 1017.7
20220628221823 33 47 1.6 8.0 0.00 0.00 0.00 30 1017.8
20220628221319 33 46 0.0 6.4 0.00 0.00 0.00 29 1018.0
20220628220814 33 46 1.6 6.4 0.00 0.00 0.00 28 1018.2
20220628220331 33 47 0.0 8.0 0.00 0.00 0.00 29 1018.1
20220628215824 32 47 0.0 8.0 0.00 0.00 0.00 29 1018.2
20220628215320 32 47 0.0 9.7 0.00 0.00 0.00 30 1018.3
20220628214816 32 47 1.6 9.7 0.00 0.00 0.00 30 1018.4
20220628214330 33 47 4.8 9.7 0.00 0.00 0.00 29 1018.4
20220628213824 33 47 0.0 8.0 0.00 0.00 0.00 30 1018.5
20220628213319 32 47 3.2 6.4 0.00 0.00 0.00 31 1018.5
20220628212817 32 47 0.0 8.0 0.00 0.00 0.00 32 1018.6
20220628212313 32 47 0.0 8.0 0.00 0.00 0.00 32 1018.7
20220628211829 32 47 0.0 4.8 0.00 0.00 0.00 32 1018.7
20220628211322 32 47 0.0 6.4 0.00 0.00 0.00 31 1018.8
20220628210817 32 47 0.0 9.7 0.00 0.00 0.00 32 1019.0
20220628210314 32 47 1.6 14.5 0.00 0.00 0.00 32 1019.0
20220628205829 32 47 0.0 12.9 0.00 0.00 0.00 32 1019.1
20220628205322 32 47 3.2 16.1 0.00 0.00 0.00 32 1019.1
20220628204821 32 47 3.2 20.9 0.00 0.00 0.00 31 1019.2
20220628204315 33 48 1.6 12.9 0.00 0.00 0.00 33 1019.3
20220628203831 33 49 0.0 6.4 0.00 0.00 0.00 34 1019.3
20220628203324 33 49 0.0 4.8 0.00 0.00 0.00 33 1019.4
20220628202819 33 49 0.0 6.4 0.00 0.00 0.00 33 1019.5
20220628202315 33 49 0.0 6.4 0.00 0.00 0.00 33 1019.6
20220628201830 33 48 0.0 8.0 0.00 0.00 0.00 34 1019.6
20220628201331 33 48 1.6 6.4 0.00 0.00 0.00 33 1019.6
20220628200824 32 48 0.0 4.8 0.00 0.00 0.00 34 1019.6
20220628200320 32 48 0.0 9.7 0.00 0.00 0.00 33 1019.7
20220628195814 32 48 1.6 9.7 0.00 0.00 0.00 34 1019.8
20220628195331 32 48 1.6 8.0 0.00 0.00 0.00 34 1019.8
20220628194826 32 48 0.0 9.7 0.00 0.00 0.00 35 1019.8
20220628194317 31 48 1.6 9.7 0.00 0.00 0.00 35 1019.8
20220628193817 32 49 0.0 8.0 0.00 0.00 0.00 35 1019.9
20220628193333 32 49 1.6 14.5 0.00 0.00 0.00 34 1020.0
20220628192825 31 50 1.6 14.5 0.00 0.00 0.00 34 1019.8
20220628192318 31 51 1.6 12.9 0.00 0.00 0.00 35 1019.9
20220628191814 32 51 4.8 12.9 0.00 0.00 0.00 33 1019.9
20220628191329 32 51 1.6 8.0 0.00 0.00 0.00 33 1020.0
20220628190823 32 51 0.0 8.0 0.00 0.00 0.00 34 1020.1
20220628190315 32 51 1.6 6.4 0.00 0.00 0.00 33 1020.2
20220628185815 32 51 0.0 8.0 0.00 0.00 0.00 34 1020.3
20220628185329 32 51 0.0 8.0 0.00 0.00 0.00 35 1020.4
20220628184821 32 51 0.0 14.5 0.00 0.00 0.00 34 1020.5
20220628184314 32 51 1.6 14.5 0.00 0.00 0.00 35 1020.5
20220628183830 31 51 0.0 9.7 0.00 0.00 0.00 36 1020.7
20220628183324 31 51 0.0 8.0 0.00 0.00 0.00 36 1020.7
20220628182819 31 51 1.6 9.7 0.00 0.00 0.00 36 1020.8
20220628182319 31 51 0.0 9.7 0.00 0.00 0.00 36 1020.9
20220628181814 31 51 1.6 6.4 0.00 0.00 0.00 36 1020.9
20220628181330 31 51 0.0 9.7 0.00 0.00 0.00 36 1021.0
20220628180822 32 51 1.6 9.7 0.00 0.00 0.00 35 1020.9
20220628180317 32 51 0.0 6.4 0.00 0.00 0.00 36 1021.0
20220628175813 31 51 0.0 6.4 0.00 0.00 0.00 35 1021.0
20220628175329 32 51 0.0 9.7 0.00 0.00 0.00 36 1021.0
20220628174821 32 51 1.6 9.7 0.00 0.00 0.00 36 1021.1
20220628174318 31 51 1.6 8.0 0.00 0.00 0.00 37 1021.1
20220628173814 31 51 1.6 9.7 0.00 0.00 0.00 36 1021.2
20220628173329 31 51 0.0 8.0 0.00 0.00 0.00 37 1021.1
20220628172821 31 51 1.6 12.9 0.00 0.00 0.00 36 1021.1
20220628172317 31 51 1.6 12.9 0.00 0.00 0.00 35 1021.2
20220628171832 31 51 0.0 6.4 0.00 0.00 0.00 36 1021.2
20220628171313 31 51 0.0 6.4 0.00 0.00 0.00 36 1021.2
20220628170825 31 51 0.0 6.4 0.00 0.00 0.00 36 1021.2
20220628170324 31 51 1.6 8.0 0.00 0.00 0.00 37 1021.3
20220628165819 31 51 1.6 14.5 0.00 0.00 0.00 36 1021.4
20220628165315 31 51 1.6 14.5 0.00 0.00 0.00 37 1021.3
20220628164811 31 50 1.6 16.1 0.00 0.00 0.00 37 1021.4
20220628164321 31 50 0.0 16.1 0.00 0.00 0.00 37 1021.3
20220628163816 31 49 1.6 12.9 0.00 0.00 0.00 37 1021.4
20220628163330 30 49 0.0 14.5 0.00 0.00 0.00 37 1021.5
20220628162827 30 49 1.6 14.5 0.00 0.00 0.00 39 1021.4
20220628162322 30 49 3.2 12.9 0.00 0.00 0.00 37 1021.4
20220628161817 30 49 1.6 14.5 0.00 0.00 0.00 38 1021.4
20220628161313 30 49 1.6 14.5 0.00 0.00 0.00 39 1021.4
20220628160829 30 49 1.6 14.5 0.00 0.00 0.00 39 1021.4
20220628160323 30 49 3.2 16.1 0.00 0.00 0.00 39 1021.4
20220628155817 29 49 1.6 16.1 0.00 0.00 0.00 39 1021.4
20220628155317 29 48 3.2 17.7 0.00 0.00 0.00 39 1021.4
20220628154831 29 48 1.6 17.7 0.00 0.00 0.00 39 1021.3
20220628154322 29 47 1.6 17.7 0.00 0.00 0.00 41 1021.2
20220628153817 29 48 1.6 17.7 0.00 0.00 0.00 41 1021.3
20220628153331 29 47 1.6 12.9 0.00 0.00 0.00 41 1021.3
20220628152824 29 47 0.0 12.9 0.00 0.00 0.00 41 1021.2
20220628152318 28 44 1.6 12.9 0.00 0.00 0.00 43 1021.0
20220628151813 28 44 0.0 8.0 0.00 0.00 0.00 42 1021.2
20220628151313 28 44 1.6 6.4 0.00 0.00 0.00 43 1021.3
20220628150830 28 44 1.6 8.0 0.00 0.00 0.00 42 1021.4
20220628150322 28 44 1.6 9.7 0.00 0.00 0.00 45 1021.3
20220628145816 27 44 1.6 8.0 0.00 0.00 0.00 46 1021.1
20220628145313 27 44 0.0 8.0 0.00 0.00 0.00 45 1021.1
20220628144828 27 44 0.0 8.0 0.00 0.00 0.00 47 1021.2
20220628144317 27 44 1.6 8.0 0.00 0.00 0.00 47 1021.3
20220628143817 27 44 0.0 8.0 0.00 0.00 0.00 47 1021.2
20220628143331 27 44 1.6 9.7 0.00 0.00 0.00 49 1021.1
20220628142824 27 44 0.0 9.7 0.00 0.00 0.00 49 1021.2
20220628142317 27 44 0.0 8.0 0.00 0.00 0.00 49 1021.2
20220628141813 27 44 0.0 8.0 0.00 0.00 0.00 48 1021.2
20220628141329 27 44 0.0 4.8 0.00 0.00 0.00 50 1021.2
20220628140821 27 44 0.0 6.4 0.00 0.00 0.00 50 1021.1
20220628140316 27 44 1.6 6.4 0.00 0.00 0.00 51 1021.1
20220628135814 26 44 0.0 6.4 0.00 0.00 0.00 53 1021.0
20220628135330 26 44 0.0 6.4 0.00 0.00 0.00 54 1021.1
20220628134824 26 38 0.0 6.4 0.00 0.00 0.00 56 1021.0
20220628134317 26 38 1.6 6.4 0.00 0.00 0.00 54 1021.0
20220628133812 26 38 0.0 6.4 0.00 0.00 0.00 57 1021.0
20220628133325 26 38 0.0 6.4 0.00 0.00 0.00 57 1021.0
20220628132820 25 38 0.0 4.8 0.00 0.00 0.00 60 1020.9
20220628132318 25 38 0.0 4.8 0.00 0.00 0.00 59 1020.9
20220628131813 25 38 0.0 8.0 0.00 0.00 0.00 61 1020.8
20220628131327 25 38 0.0 8.0 0.00 0.00 0.00 62 1020.8
20220628130821 25 38 0.0 1.6 0.00 0.00 0.00 65 1020.7
20220628130317 25 38 0.0 1.6 0.00 0.00 0.00 65 1020.8
20220628125830 24 38 0.0 1.6 0.00 0.00 0.00 69 1020.7
20220628125325 24 38 0.0 1.6 0.00 0.00 0.00 69 1020.6
20220628124821 24 38 0.0 1.6 0.00 0.00 0.00 69 1020.7
20220628124320 24 38 0.0 1.6 0.00 0.00 0.00 69 1020.7
20220628123815 24 38 0.0 0.0 0.00 0.00 0.00 67 1020.6
20220628123328 24 38 0.0 1.6 0.00 0.00 0.00 65 1020.5
20220628122822 24 38 0.0 1.6 0.00 0.00 0.00 64 1020.5
20220628122317 24 38 0.0 0.0 0.00 0.00 0.00 63 1020.5
20220628121812 23 38 0.0 1.6 0.00 0.00 0.00 63 1020.6
20220628121327 23 38 0.0 1.6 0.00 0.00 0.00 63 1020.6
20220628120825 23 38 0.0 1.6 0.00 0.00 0.00 67 1020.5
20220628120314 23 38 0.0 1.6 0.00 0.00 0.00 68 1020.5
20220628115826 23 38 0.0 1.6 0.00 0.00 0.00 69 1020.4
20220628115318 23 38 0.0 0.0 0.00 0.00 0.00 69 1020.3
20220628114813 23 38 0.0 0.0 0.00 0.00 0.00 68 1020.3
20220628114328 23 38 0.0 0.0 0.00 0.00 0.00 68 1020.3
20220628113823 23 38 0.0 0.0 0.00 0.00 0.00 69 1020.3
20220628113318 23 38 0.0 0.0 0.00 0.00 0.00 68 1020.3
20220628112817 23 38 0.0 1.6 0.00 0.00 0.00 68 1020.3
20220628112312 23 38 0.0 1.6 0.00 0.00 0.00 68 1020.3
20220628111816 23 38 0.0 1.6 0.00 0.00 0.00 68 1020.3
20220628111313 23 38 0.0 1.6 0.00 0.00 0.00 68 1020.2
20220628110828 23 38 0.0 0.0 0.00 0.00 0.00 67 1020.2
20220628110320 23 38 0.0 0.0 0.00 0.00 0.00 67 1020.0
20220628105815 23 38 0.0 1.6 0.00 0.00 0.00 67 1019.9
20220628105315 23 38 0.0 1.6 0.00 0.00 0.00 66 1020.0
20220628104832 23 38 0.0 1.6 0.00 0.00 0.00 67 1019.9
20220628104323 23 38 0.0 1.6 0.00 0.00 0.00 67 1020.0
20220628103818 23 38 0.0 1.6 0.00 0.00 0.00 67 1020.1
20220628103313 23 38 0.0 1.6 0.00 0.00 0.00 67 1020.2
20220628102826 23 38 0.0 0.0 0.00 0.00 0.00 67 1020.2
20220628102320 23 38 0.0 0.0 0.00 0.00 0.00 68 1020.2
20220628101816 23 38 0.0 0.0 0.00 0.00 0.00 68 1020.2
20220628101315 23 38 0.0 0.0 0.00 0.00 0.00 68 1020.1
20220628100813 23 38 0.0 0.0 0.00 0.00 0.00 67 1020.0
20220628100326 23 38 0.0 0.0 0.00 0.00 0.00 68 1020.0
20220628095818 23 38 0.0 0.0 0.00 0.00 0.00 68 1020.0
20220628095313 23 38 0.0 1.6 0.00 0.00 0.00 69 1019.9
20220628094829 23 38 0.0 1.6 0.00 0.00 0.00 69 1019.8
20220628094320 23 38 0.0 1.6 0.00 0.00 0.00 69 1019.9
20220628093819 23 38 0.0 1.6 0.00 0.00 0.00 69 1020.0
20220628093315 23 38 0.0 1.6 0.00 0.00 0.00 69 1019.9
20220628092831 23 38 0.0 3.2 0.00 0.00 0.00 69 1019.8
20220628092323 23 38 0.0 3.2 0.00 0.00 0.00 69 1019.7
20220628091818 23 38 0.0 3.2 0.00 0.00 0.00 69 1019.6
20220628091313 23 38 0.0 3.2 0.00 0.00 0.00 69 1019.7
20220628090830 24 38 0.0 4.8 0.00 0.00 0.00 69 1019.6
20220628090319 24 38 0.0 4.8 0.00 0.00 0.00 69 1019.6
20220628085819 24 38 0.0 9.7 0.00 0.00 0.00 69 1019.5
20220628085313 24 38 1.6 9.7 0.00 0.00 0.00 69 1019.5
20220628084830 24 38 1.6 6.4 0.00 0.00 0.00 70 1019.5
20220628084321 24 38 0.0 8.0 0.00 0.00 0.00 69 1019.4
20220628083816 24 38 0.0 8.0 0.00 0.00 0.00 69 1019.4
20220628083332 24 38 0.0 8.0 0.00 0.00 0.00 69 1019.4
20220628082824 25 38 0.0 8.0 0.00 0.00 0.00 69 1019.4
20220628082323 25 38 0.0 8.0 0.00 0.00 0.00 69 1019.4
20220628081819 25 38 0.0 4.8 0.00 0.00 0.00 70 1019.4
20220628081314 25 38 0.0 4.8 0.00 0.00 0.00 70 1019.5
20220628080831 25 38 0.0 3.2 0.00 0.00 0.00 70 1019.4
20220628080324 25 38 0.0 3.2 0.00 0.00 0.00 70 1019.4
20220628075819 25 38 0.0 4.8 0.00 0.00 0.00 70 1019.4
20220628075313 25 38 0.0 12.9 0.00 0.00 0.00 70 1019.4
20220628074828 25 38 1.6 12.9 0.00 0.00 0.00 70 1019.6
20220628074322 25 38 0.0 9.7 0.00 0.00 0.00 70 1019.6
20220628073817 25 38 0.0 4.8 0.00 0.00 0.00 70 1019.7
20220628073332 25 38 0.0 4.8 0.00 0.00 0.00 70 1019.7
20220628072824 25 38 0.0 4.8 0.00 0.00 0.00 70 1019.7
20220628072319 25 38 0.0 9.7 0.00 0.00 0.00 70 1019.6
20220628071814 25 38 0.0 12.9 0.00 0.00 0.00 70 1019.6
20220628071330 25 35 0.0 8.0 0.00 0.00 0.00 70 1019.7
20220628070829 25 35 0.0 4.8 0.00 0.00 0.00 70 1019.6
20220628070321 25 35 0.0 6.4 0.00 0.00 0.00 70 1019.7
20220628065816 25 35 0.0 8.0 0.00 0.00 0.00 70 1019.7
20220628065313 25 35 0.0 6.4 0.00 0.00 0.00 70 1019.7
20220628064828 25 35 0.0 1.6 0.00 0.00 0.00 71 1019.8
20220628064320 26 35 0.0 0.0 0.00 0.00 0.00 71 1019.8
20220628063814 26 35 0.0 6.4 0.00 0.00 0.00 71 1019.8
20220628063313 26 35 0.0 6.4 0.00 0.00 0.00 71 1019.8
20220628062826 26 35 0.0 1.6 0.00 0.00 0.00 70 1019.9
20220628062321 26 35 0.0 1.6 0.00 0.00 0.00 70 1019.8
20220628061817 26 35 0.0 4.8 0.00 0.00 0.00 70 1019.8
20220628061332 26 35 0.0 4.8 0.00 0.00 0.00 69 1019.7
20220628060825 26 35 0.0 4.8 0.00 0.00 0.00 69 1019.7
20220628060319 26 35 0.0 3.2 0.00 0.00 0.00 69 1019.8
20220628055814 26 35 0.0 4.8 0.00 0.00 0.00 69 1019.8
20220628055313 26 35 0.0 4.8 0.00 0.00 0.00 69 1019.7
20220628054830 26 35 0.0 3.2 0.00 0.00 0.00 69 1019.8
20220628054318 26 35 0.0 1.6 0.00 0.00 0.00 68 1019.8
20220628053813 26 35 0.0 1.6 0.00 0.00 0.00 68 1019.8
20220628053326 26 35 0.0 8.0 0.00 0.00 0.00 68 1019.8
20220628052820 26 35 0.0 12.9 0.00 0.00 0.00 68 1019.9
20220628052315 26 35 0.0 12.9 0.00 0.00 0.00 68 1019.9
20220628051815 26 34 0.0 3.2 0.00 0.00 0.00 68 1020.0
20220628051330 26 34 0.0 8.0 0.00 0.00 0.00 68 1020.0
20220628050825 27 34 0.0 8.0 0.00 0.00 0.00 68 1019.9
20220628050320 27 34 0.0 1.6 0.00 0.00 0.00 69 1020.1
20220628045815 27 34 0.0 1.6 0.00 0.00 0.00 69 1020.1
20220628045313 27 34 0.0 1.6 0.00 0.00 0.00 68 1020.0
20220628044829 27 34 0.0 1.6 0.00 0.00 0.00 68 1020.0
20220628044320 27 34 0.0 1.6 0.00 0.00 0.00 68 1019.9
20220628043819 27 34 0.0 4.8 0.00 0.00 0.00 67 1019.8
20220628043313 27 34 0.0 4.8 0.00 0.00 0.00 67 1019.7
20220628042828 27 34 0.0 4.8 0.00 0.00 0.00 66 1019.7
20220628042323 27 34 0.0 3.2 0.00 0.00 0.00 66 1019.7
20220628041818 27 34 0.0 3.2 0.00 0.00 0.00 66 1019.6
20220628041313 27 34 0.0 3.2 0.00 0.00 0.00 66 1019.6
20220628040831 27 34 0.0 3.2 0.00 0.00 0.00 66 1019.5
20220628040329 27 34 0.0 4.8 0.00 0.00 0.00 66 1019.5
20220628035821 28 34 0.0 4.8 0.00 0.00 0.00 65 1019.5
20220628035316 28 34 0.0 6.4 0.00 0.00 0.00 65 1019.5
20220628034831 28 34 0.0 6.4 0.00 0.00 0.00 65 1019.4
20220628034322 28 34 0.0 3.2 0.00 0.00 0.00 65 1019.5
20220628033816 28 34 0.0 8.0 0.00 0.00 0.00 64 1019.4
20220628033332 28 34 0.0 9.7 0.00 0.00 0.00 63 1019.2
20220628032824 28 34 0.0 9.7 0.00 0.00 0.00 63 1019.0